TimeEDT,TemperatureF,Dew PointF,Humidity,Sea Level PressureIn,VisibilityMPH,Wind Direction,Wind SpeedMPH,Gust SpeedMPH,PrecipitationIn,Events,Conditions,WindDirDegrees,DateUTC
12:53 AM,53.1,32.0,45,29.91,10.0,WSW,18.4,24.2,N/A,,Overcast,250,2013-10-27 04:53:00
1:53 AM,52.0,30.0,43,29.91,10.0,WSW,11.5,19.6,N/A,,Overcast,250,2013-10-27 05:53:00
2:53 AM,51.1,30.0,44,29.89,10.0,West,8.1,-,N/A,,Overcast,260,2013-10-27 06:53:00
3:53 AM,48.9,33.1,54,29.88,10.0,West,9.2,-,0.00,Rain,Light Rain,270,2013-10-27 07:53:00
4:53 AM,48.0,34.0,58,29.88,10.0,West,4.6,-,0.00,,Overcast,270,2013-10-27 08:53:00
5:53 AM,46.0,34.0,63,29.89,10.0,WSW,4.6,-,N/A,,Overcast,250,2013-10-27 09:53:00
6:53 AM,43.0,32.0,65,29.91,10.0,West,5.8,-,N/A,,Partly Cloudy,260,2013-10-27 10:53:00
7:53 AM,44.1,33.1,65,29.93,10.0,West,6.9,-,N/A,,Clear,270,2013-10-27 11:53:00
8:53 AM,50.0,33.1,52,29.94,10.0,West,9.2,-,N/A,,Clear,280,2013-10-27 12:53:00
9:53 AM,53.1,32.0,45,29.95,10.0,West,15.0,21.9,N/A,,Clear,280,2013-10-27 13:53:00
10:53 AM,54.0,32.0,43,29.96,10.0,WNW,15.0,24.2,N/A,,Clear,290,2013-10-27 14:53:00
11:53 AM,55.9,32.0,40,29.96,10.0,WNW,15.0,21.9,N/A,,Clear,290,2013-10-27 15:53:00
12:53 PM,57.0,32.0,39,29.94,10.0,NW,13.8,21.9,N/A,,Clear,310,2013-10-27 16:53:00
1:53 PM,57.9,30.9,36,29.93,10.0,West,12.7,24.2,N/A,,Clear,280,2013-10-27 17:53:00
2:53 PM,57.9,30.0,35,29.94,10.0,WNW,12.7,21.9,N/A,,Partly Cloudy,300,2013-10-27 18:53:00
3:53 PM,57.0,28.9,34,29.95,10.0,WNW,15.0,-,N/A,,Partly Cloudy,290,2013-10-27 19:53:00
4:53 PM,55.9,28.9,36,29.97,10.0,WNW,11.5,-,N/A,,Mostly Cloudy,290,2013-10-27 20:53:00
5:53 PM,52.0,28.9,41,30.00,10.0,West,6.9,-,N/A,,Partly Cloudy,280,2013-10-27 21:53:00
6:53 PM,48.9,28.0,44,30.03,10.0,West,5.8,-,N/A,,Partly Cloudy,280,2013-10-27 22:53:00
7:53 PM,37.9,26.1,62,30.06,10.0,Calm,Calm,-,N/A,,Clear,0,2013-10-27 23:53:00
8:53 PM,34.0,24.1,67,30.07,10.0,Calm,Calm,-,N/A,,Clear,0,2013-10-28 00:53:00
9:53 PM,30.0,21.9,72,30.10,10.0,Calm,Calm,-,N/A,,Clear,0,2013-10-28 01:53:00
10:53 PM,30.0,21.9,72,30.12,10.0,Calm,Calm,-,N/A,,Clear,0,2013-10-28 02:53:00
11:53 PM,27.0,19.9,75,30.12,10.0,Calm,Calm,-,N/A,,Clear,0,2013-10-28 03:53:00